sat.trackr.live / text

‹ back to catalog

STARLINK-6094

NORAD 56122 · 2023-046AF

PAYLOAD ACTIVE UNKNOWN

§ Identity

Operator
Country
US
Launch date
2023-03-29
Launch site
AFETR
Launch vehicle
Mass (kg)
RCS (m²)

Purposes: comms

External: N2YO · Heavens-Above · Gunter

§ Orbital elements

Epoch: 2026-09-19T22:06:17.580384Z

Period
94.27 min
Inclination
43.0044°
Eccentricity
0.0001628
Mean motion
15.27575783 rev/d
Perigee alt
481.9 km
Apogee alt
484.2 km
Semi-major
6,861.2 km
B*
1.0603e-5
RAAN
141.4799°
Arg perigee
270.9852°
Mean anomaly
89.0813°
Rev number
19,177

§ Raw data

STARLINK-60941 56122U 23046AF  26262.92103681  .00000029  00000+0  10603-4 0  99932 56122  43.0044 141.4799 0001628 270.9852  89.0813 15.27575783191772

JSON: /api/v1/satellites/56122 · /tle

For live sub-satellite position, see the globe view (requires WebGL).

§ Visibility from observer

Set your observer location to see the next 7 days of passes ≥ 10°. The values pass through the URL so the page stays shareable.

No JS? Fill the form by hand. The geolocation button needs JavaScript.